Plymouth, NH

8:29 AM EDT on October 24, 2017 (GMT -0400)
Plymouth

Weather History for K1P1 - February, 2013

Change the Weather History Date:

Wednesday, February 20, 2013

  Actual Average (KLCI) Record (KLCI)
Temperature  
Mean Temperature 28 °F -  
Max Temperature 34 °F 38 °F 53 °F (2016)
Min Temperature 22 °F 16 °F -15 °F (1993)
Degree Days  
Heating Degree Days 37    
Moisture  
Dew Point 22 °F    
Average Humidity 76    
Maximum Humidity 100    
Minimum Humidity 59    
Precipitation  
Precipitation 0.06 in - - ()
Sea Level Pressure  
Sea Level Pressure 29.58 in    
Wind  
Wind Speed 7 mph (West)    
Max Wind Speed 17 mph    
Max Gust Speed 26 mph    
Visibility 8 miles    
Events Snow    
Averages and records for this station are not official NWS values.
T = Trace of Precipitation, MM = Missing Value Source: NWS Daily Summary

Daily Weather History Graph

Daily Weather History Graph

Search for Another Location

Airport or City:

Trip Planner

Search our weather history database for the weather conditions in past years. The results will help you decide how hot, cold, wet, or windy it might be!

Date:

Astronomy

Feb. 20, 2013 Rise Set
Actual Time 6:37 AM EST 5:24 PM EST
Civil Twilight 6:08 AM EST 5:53 PM EST
Nautical Twilight 5:35 AM EST 6:26 PM EST
Astronomical Twilight 5:02 AM EST 7:00 PM EST
Moon 12:37 PM EST (2/20) 3:01 AM EST (2/20)
Length of Visible Light 11h 44m
Length of Day
10h 46m
Waxing Gibbous, 76% of the Moon is Illuminated
Feb 20
Waxing Gibbous
Feb 25
Full
Mar 4
Last Quarter
Mar 11
New
Mar 19
First Quarter

Hourly Weather History & Observations

Time (EST) Temp. Windchill Dew Point Humidity Pressure Visibility Wind Dir Wind Speed Gust Speed Precip Events Conditions
12:15 AM 32.0 °F - 31.8 °F 99% 29.53 in 1.8 mi Calm Calm - 0.01 in Snow Light Snow
12:35 AM 32.0 °F - 31.8 °F 99% 29.53 in 2.5 mi Calm Calm - 0.01 in   Mist
12:55 AM 32.0 °F - 31.8 °F 99% 29.53 in 2.0 mi Calm Calm - 0.01 in Snow Light Snow
1:15 AM 32.0 °F - 31.8 °F 99% 29.52 in 1.5 mi Calm Calm - N/A Snow Light Snow
1:35 AM 32.0 °F - 32.0 °F 100% 29.51 in 1.8 mi Calm Calm - N/A Snow Light Snow
2:15 AM 32.0 °F - 32.0 °F 100% 29.49 in 3.0 mi Calm Calm - 0.01 in Snow Light Snow
2:35 AM 32.9 °F 26.7 °F 32.9 °F 100% 29.48 in 5.0 mi West 6.9 mph - 0.01 in Snow Light Snow
2:55 AM 34.0 °F 27.2 °F 33.8 °F 99% 29.49 in 4.0 mi WNW 8.1 mph - 0.02 in Snow Light Snow
3:15 AM 33.4 °F 25.4 °F 32.9 °F 98% 29.49 in 1.5 mi West 10.4 mph 20.7 mph 0.02 in Snow Light Snow
3:35 AM 32.9 °F 23.2 °F 32.0 °F 96% 29.50 in 0.8 mi WNW 13.8 mph 21.9 mph 0.03 in Snow Snow
3:55 AM 32.0 °F 20.8 °F 30.2 °F 93% 29.50 in 1.2 mi West 17.3 mph 26.5 mph 0.03 in Snow Light Snow
4:15 AM 32.0 °F 21.2 °F 28.0 °F 85% 29.51 in 7.0 mi WNW 16.1 mph 23.0 mph N/A Snow Light Snow
4:35 AM 31.5 °F 20.5 °F 27.0 °F 83% 29.53 in 7.0 mi West 16.1 mph 25.3 mph N/A Snow Light Snow
4:55 AM 31.1 °F 21.9 °F 26.6 °F 83% 29.53 in 10.0 mi WNW 11.5 mph - N/A Snow Light Snow
5:15 AM 30.2 °F 20.8 °F 27.1 °F 88% 29.53 in 7.0 mi West 11.5 mph 16.1 mph N/A Snow Light Snow
5:35 AM 29.7 °F 20.1 °F 27.0 °F 90% 29.54 in 4.0 mi WNW 11.5 mph - N/A Snow Light Snow
5:55 AM 29.3 °F 22.3 °F 26.8 °F 90% 29.54 in 5.0 mi West 6.9 mph - N/A Snow Light Snow
6:15 AM 29.3 °F 23.2 °F 26.1 °F 88% 29.54 in 10.0 mi West 5.8 mph - N/A   Unknown
6:35 AM 29.3 °F 23.2 °F 25.9 °F 87% 29.54 in 10.0 mi West 5.8 mph - N/A   Unknown
7:15 AM 29.3 °F 24.3 °F 25.3 °F 85% 29.55 in 10.0 mi WNW 4.6 mph - N/A   Unknown
7:35 AM 29.3 °F 21.5 °F 25.0 °F 84% 29.55 in 10.0 mi WNW 8.1 mph - N/A   Unknown
7:55 AM 29.3 °F 20.8 °F 24.1 °F 81% 29.55 in 10.0 mi WNW 9.2 mph - N/A   Unknown
8:35 AM 29.3 °F 20.2 °F 24.1 °F 81% 29.56 in 10.0 mi West 10.4 mph - N/A   Unknown
8:55 AM 29.3 °F 24.3 °F 23.7 °F 80% 29.56 in 10.0 mi WNW 4.6 mph - N/A   Unknown
9:15 AM 29.3 °F 21.5 °F 22.5 °F 76% 29.56 in 10.0 mi West 8.1 mph - N/A   Unknown
9:35 AM 29.1 °F 22.1 °F 22.3 °F 76% 29.56 in 10.0 mi WNW 6.9 mph 17.3 mph N/A Snow Light Snow
10:15 AM 28.9 °F 21.9 °F 22.5 °F 77% 29.57 in 10.0 mi West 6.9 mph - N/A Snow Light Snow
10:35 AM 28.9 °F 19.8 °F 21.9 °F 75% 29.57 in 7.0 mi West 10.4 mph 21.9 mph N/A Snow Light Snow
10:55 AM 29.8 °F 20.9 °F 22.1 °F 73% 29.57 in 10.0 mi West 10.4 mph - N/A   Unknown
11:15 AM 30.0 °F 20.0 °F 20.8 °F 69% 29.58 in 10.0 mi West 12.7 mph 17.3 mph N/A   Unknown
11:35 AM 30.0 °F 22.4 °F 21.0 °F 69% 29.58 in 10.0 mi West 8.1 mph - N/A   Unknown
11:55 AM 29.3 °F 18.6 °F 20.3 °F 69% 29.58 in 10.0 mi West 13.8 mph 20.7 mph N/A Snow Light Snow
12:15 PM 29.3 °F 20.8 °F 20.3 °F 69% 29.57 in 10.0 mi West 9.2 mph 17.3 mph N/A   Unknown
12:35 PM 30.2 °F 21.3 °F 19.9 °F 66% 29.57 in 10.0 mi West 10.4 mph 18.4 mph N/A   Unknown
12:55 PM 30.0 °F 20.5 °F 17.6 °F 60% 29.57 in 10.0 mi West 11.5 mph 20.7 mph N/A   Unknown
1:15 PM 29.8 °F 21.5 °F 18.3 °F 62% 29.56 in 10.0 mi West 9.2 mph 16.1 mph N/A   Unknown
1:55 PM 29.3 °F 18.6 °F 18.0 °F 63% 29.56 in 10.0 mi West 13.8 mph 20.7 mph N/A   Unknown
2:15 PM 29.1 °F 17.5 °F 17.4 °F 62% 29.56 in 10.0 mi West 16.1 mph 23.0 mph N/A   Unknown
2:35 PM 29.3 °F 19.6 °F 18.9 °F 65% 29.56 in 10.0 mi West 11.5 mph 21.9 mph N/A   Unknown
3:15 PM 29.7 °F 21.3 °F 19.2 °F 65% 29.58 in 10.0 mi West 9.2 mph 20.7 mph N/A   Unknown
3:55 PM 28.4 °F 19.1 °F 19.2 °F 69% 29.58 in 10.0 mi West 10.4 mph 19.6 mph N/A   Unknown
4:15 PM 28.0 °F 18.6 °F 19.2 °F 70% 29.59 in 10.0 mi West 10.4 mph 19.6 mph N/A   Unknown
4:35 PM 27.5 °F 17.4 °F 18.5 °F 69% 29.59 in 10.0 mi West 11.5 mph 24.2 mph N/A   Unknown
4:55 PM 27.3 °F 17.7 °F 18.3 °F 69% 29.59 in 10.0 mi West 10.4 mph 25.3 mph N/A   Unknown
5:15 PM 27.1 °F 18.2 °F 18.1 °F 69% 29.60 in 10.0 mi West 9.2 mph - N/A   Unknown
5:35 PM 27.0 °F 16.7 °F 17.1 °F 66% 29.60 in 10.0 mi WSW 11.5 mph 18.4 mph N/A   Unknown
5:55 PM 27.0 °F 18.7 °F 15.6 °F 62% 29.61 in 10.0 mi West 8.1 mph 17.3 mph N/A   Unknown
6:15 PM 26.8 °F 16.5 °F 14.2 °F 59% 29.61 in 10.0 mi West 11.5 mph 18.4 mph N/A   Unknown
6:35 PM 26.6 °F 18.2 °F 14.0 °F 59% 29.62 in 10.0 mi West 8.1 mph - N/A   Unknown
6:55 PM 26.2 °F 15.2 °F 14.5 °F 61% 29.63 in 10.0 mi West 12.7 mph 18.4 mph N/A   Unknown
7:15 PM 25.7 °F 15.1 °F 14.9 °F 64% 29.63 in 10.0 mi West 11.5 mph 18.4 mph N/A   Unknown
7:35 PM 25.2 °F 15.1 °F 14.4 °F 64% 29.64 in 10.0 mi West 10.4 mph - N/A   Unknown
7:55 PM 25.0 °F 15.5 °F 13.5 °F 62% 29.64 in 10.0 mi West 9.2 mph - N/A   Unknown
8:15 PM 24.8 °F 16.1 °F 13.3 °F 62% 29.65 in 10.0 mi West 8.1 mph 18.4 mph N/A   Unknown
8:35 PM 24.3 °F 14.6 °F 14.0 °F 65% 29.65 in 10.0 mi West 9.2 mph 19.6 mph N/A   Unknown
8:55 PM 24.1 °F 14.4 °F 14.0 °F 65% 29.66 in 10.0 mi West 9.2 mph - N/A   Unknown
9:15 PM 24.3 °F 18.4 °F 14.4 °F 66% 29.66 in 10.0 mi West 4.6 mph - N/A   Unknown
9:35 PM 23.9 °F 18.0 °F 14.7 °F 68% 29.67 in 10.0 mi West 4.6 mph - N/A   Unknown
10:15 PM 23.7 °F 16.6 °F 14.7 °F 69% 29.68 in 10.0 mi West 5.8 mph - N/A   Unknown
10:35 PM 23.0 °F 13.1 °F 14.7 °F 71% 29.69 in 10.0 mi West 9.2 mph - N/A   Unknown
10:55 PM 22.6 °F 16.5 °F 14.9 °F 72% 29.69 in 10.0 mi WNW 4.6 mph - N/A   Unknown
11:35 PM 23.0 °F 17.0 °F 15.3 °F 72% 29.69 in 10.0 mi WNW 4.6 mph - N/A   Unknown
11:55 PM 22.8 °F 14.5 °F 15.3 °F 73% 29.69 in 10.0 mi WNW 6.9 mph - N/A   Unknown